Regional Weather Roundup
Issued by NWS Northern Indiana

Home | Current Version | Previous Version | Text Only | Print | Product List | Glossary Off
Versions: 1 2 3 4 5 6 7 8 9 10 11 12 13 14 15 16 17 18 19 20 21 22 23 24 25 26 27 28 29 30 31 32 33 34 35 36 37 38 39 40 41 42 43 44 45 46 47 48 49 50

161
ASUS43 KIWX 230700
RWRIWX

KIWX WEATHER ROUNDUP
NATIONAL WEATHER SERVICE NORTHERN INDIANA
200 AM EST FRI FEB 23 2018

NOTE: "FAIR" INDICATES FEW OR NO CLOUDS BELOW 12,000 FEET WITH NO
SIGNIFICANT WEATHER AND/OR OBSTRUCTIONS TO VISIBILITY.

* THESE STATIONS ARE NOT UNDER NWS QUALITY CONTROL. THEY ALSO MAY NOT
  REPORT WEATHER SUCH AS PRECIPITATION OR FOG.

INZ001>027-230800-
NORTHERN INDIANA

CITY           SKY/WX    TMP DP  RH WIND       PRES   REMARKS
SOUTH BEND     CLOUDY    35  33  92 SE17      30.30F FOG     WCI  25
GOSHEN         CLOUDY    35  34  96 E9        30.33F FOG     WCI  28
MONTICELLO*    CLOUDY    38  37  95 NE8       30.26F FOG
WARSAW*        CLOUDY    34  34 100 MISG      30.34R FOG
AUBURN*        CLOUDY    34  34 100 E3        30.32F FOG
FORT WAYNE     DRIZZLE   36  36 100 E9        30.31F FOG
PERU/GRISSOM   CLOUDY    37  37 100 E12       30.26F FOG

$$
INZ028>050-230800-
CENTRAL INDIANA

CITY           SKY/WX    TMP DP  RH WIND       PRES   REMARKS
LAFAYETTE      CLOUDY    43  43 100 SE7       30.24F
KOKOMO*        CLOUDY    38  37  97 E12       30.27F FOG
MUNCIE*        CLOUDY    42  41  96 SE6       30.28F FOG
INDIANAPOLIS   DRZL/FOG  44  44 100 SE13      30.26F VSB 1

$$
MIZ043>046-050>051-056>058-064>065-071>073-077>080-230800-
SOUTHWEST LOWER MICHIGAN

CITY           SKY/WX    TMP DP  RH WIND       PRES   REMARKS
BATTLE CREEK   CLOUDY    35  31  85 SE13      30.34F WCI  26
BENTON HARBOR  CLOUDY    37  33  85 SE16G23   30.29F
COLDWATER*     CLOUDY    34  34 100 E9        30.36F FOG     WCI  27
HILLSDALE*     CLOUDY    32  32 100 E9        30.33F WCI  24
HOLLAND        CLOUDY    37  28  70 E8        30.32F
GRAND RAPIDS   CLOUDY    34  27  75 E10       30.35R WCI  26
KALAMAZOO      CLOUDY    36  32  85 SE9G16    30.33F FOG
STURGIS*       LGT SNOW  35  34  96 E10       30.33F WCI  27
THREE RIVERS*  LGT SNOW  36  34  92 SE10G16   30.34F

$$
OHZ001>008-015>018-024>025-230800-
NORTHWEST OHIO

CITY           SKY/WX    TMP DP  RH WIND       PRES   REMARKS
DEFIANCE       CLOUDY    34  32  92 E8        30.34F FOG     WCI  27
FINDLAY        CLOUDY    37  33  85 E7        30.33F FOG
TOLEDO EXPRESS CLOUDY    35  34  96 E8        30.36F WCI  29
TOLEDO METCALF CLOUDY    35  32  88 E7        30.37F WCI  29
LIMA           CLOUDY    36  36 100 E6        30.32F FOG

$$
AND FOR LAKE MICHIGAN COASTAL AND OPEN LAKE BUOY OBSERVATIONS

STATION/POSITION TEMP    WIND        PRES    VSBY  WAVE
                 AIR SEA DIR/SP/G                  HT/PER
                 (F)     (DEG/KT/KT) (MB)    (MI)  (FT/S)
CALUMET HARBOR    38     120/  9/ 12 1024.5
MICHIGAN CITY     37     120/ 14/ 16   N/A
BURNS HARBOR      38     150/ 10/ 18 1025.4F
SAINT JOSEPH      38     140/  2/  9 1026.4

$$
&&




USA.gov is the U.S. government's official web portal to all federal, state and local government web resources and services.